Flag for India Weather past 2 weeks in Varanasi, Uttar Pradesh, India

Now
77 °F

Haze.


Feels Like: 79 °F
Forecast: 67 / 83 °F
Wind: No wind

Location: Varanasi / Babatpur

Current Time: Oct 24, 2014 at 9:50:19 PM

Latest Report: Oct 24, 2014 at 7:00 PM


Visibility: 2 mi

Pressure: 29.89 "Hg

Humidity: 65%

Dew point: 64 °F

Location of VaranasiLocation

Historic Weather in Varanasi — Graph

°F

Varanasi temperature yesterday

Maximum temperature yesterday: 88 °F (at 1:00 PM)
Minimum temperature yesterday: 70 °F (at 5:00 AM)
Average temperature yesterday: 79 °F

Past Weeks' High & Low Weather Summary

 TemperatureHumidityPressure
High95 °F (Oct 11, 2:00 PM)100% (Oct 12, 6:00 AM)30.07 "Hg (Oct 12, 6:00 AM)
Low66 °F (Oct 20, 5:00 AM)46% (Oct 19, 12:00 PM)29.62 "Hg (Oct 14, 5:00 AM)
Average79 °F76%29.88 "Hg
* Reported Oct 9 7:00 PM — Oct 24 7:00 PM, Varanasi, Weather by CustomWeather, © 2014

Note: Actual official high and low records may vary slightly from our data, if they occured in-between our weather recording intervals... More about our weather records

Advertising

Varanasi weather history for previous 24 hours

 ConditionsComfort  
Time TempWeatherWind HumidityBarometerVisibility
7:00 PM
Oct 24
77 °FHaze.No wind65%29.89 "Hg2 mi
6:00 PM77 °FHaze.No wind69%29.86 "Hg2 mi
5:00 PM81 °FHaze.No wind58%29.86 "Hg2 mi
4:00 PM86 °FHaze.No wind49%29.86 "Hg3 mi
3:00 PM88 °FHaze.No wind46%29.86 "Hg3 mi
2:00 PM86 °FHaze.No wind52%29.86 "Hg3 mi
1:00 PM86 °FHaze.No wind52%29.89 "Hg3 mi
12:00 PM84 °FHaze.2 mph58%29.92 "Hg2 mi
11:00 AM82 °FHaze.2 mph66%29.95 "Hg2 mi
10:00 AM82 °FHaze.No wind66%29.98 "Hg1 mi
8:00 AM70 °FFog.No wind94%29.95 "Hg1 mi
6:00 AM68 °FFog.No wind94%29.92 "Hg1 mi
5:00 AM68 °FFog.No wind94%29.92 "Hg1 mi
4:00 AM68 °FFog.No wind100%29.92 "Hg1 mi
12:00 AM72 °FHaze.No wind94%29.92 "Hg1 mi
11:00 PM
Oct 23
72 °FHaze.No wind94%29.92 "Hg1 mi
10:00 PM73 °FHaze.No wind83%29.95 "Hg1 mi
9:00 PM75 °FHaze.No wind83%29.92 "Hg1 mi
Weather by CustomWeather, © 2014

See weather overviewHow to use our weather pages